BTK6572 WIII-WARR

Flight info

Callsign BTK6572
Flight time 1h 12m
Altitude 31000
Route CA T3 BA
Aircraft A320/M-SDE3FGHIRWY/LB1

Departure

Time 2026-05-06 19:46
Airport Soekarno-Hatta International Airport (WIII)

Arrival

Time 2026-05-06 20:58
Airport Juanda International Airport (WARR)
Time Latitude Longitude Altitude Speed Heading
2026-05-06 19:21 -6.12236 106.64928 38 ft 0 kts 168°
2026-05-06 19:32 -6.12235 106.64928 38 ft 0 kts 168°
2026-05-06 19:33 -6.12236 106.64928 38 ft 0 kts 168°
2026-05-06 19:33 -6.12221 106.64925 36 ft 2 kts 169°
2026-05-06 19:33 -6.12205 106.64921 35 ft 2 kts 168°
2026-05-06 19:33 -6.12189 106.64918 34 ft 2 kts 167°
2026-05-06 19:34 -6.12172 106.64914 35 ft 2 kts 172°
2026-05-06 19:34 -6.12157 106.64916 36 ft 2 kts 238°
2026-05-06 19:34 -6.12152 106.64924 37 ft 0 kts 248°
2026-05-06 19:39 -6.12153 106.64920 38 ft 2 kts 248°
2026-05-06 19:39 -6.12163 106.64899 37 ft 6 kts 247°
2026-05-06 19:39 -6.12183 106.64849 38 ft 9 kts 249°
2026-05-06 19:40 -6.12204 106.64790 38 ft 8 kts 257°
2026-05-06 19:40 -6.12172 106.64739 38 ft 10 kts 330°
2026-05-06 19:40 -6.12118 106.64715 61 ft 9 kts 336°
2026-05-06 19:40 -6.12057 106.64691 38 ft 10 kts 339°
2026-05-06 19:41 -6.12007 106.64662 37 ft 9 kts 305°
2026-05-06 19:41 -6.12010 106.64598 39 ft 11 kts 248°
2026-05-06 19:41 -6.12041 106.64522 39 ft 13 kts 248°
2026-05-06 19:41 -6.12078 106.64430 37 ft 15 kts 248°
2026-05-06 19:42 -6.12114 106.64339 39 ft 14 kts 248°
2026-05-06 19:42 -6.12152 106.64244 39 ft 12 kts 248°
2026-05-06 19:42 -6.12186 106.64158 39 ft 12 kts 248°
2026-05-06 19:42 -6.12215 106.64087 39 ft 10 kts 248°
2026-05-06 19:43 -6.12243 106.64015 39 ft 12 kts 248°
2026-05-06 19:43 -6.12260 106.63951 39 ft 10 kts 274°
2026-05-06 19:43 -6.12242 106.63915 37 ft 0 kts 311°
2026-05-06 19:44 -6.12230 106.63904 40 ft 4 kts 320°
2026-05-06 19:44 -6.12185 106.63890 41 ft 10 kts
2026-05-06 19:44 -6.12111 106.63911 41 ft 12 kts 17°
2026-05-06 19:45 -6.12078 106.63943 41 ft 0 kts 66°
2026-05-06 19:45 -6.12075 106.63949 40 ft 1 kts 66°
2026-05-06 19:45 -6.12066 106.63969 40 ft 7 kts 68°
2026-05-06 19:45 -6.11980 106.64187 39 ft 68 kts 68°
2026-05-06 19:46 -6.11721 106.64834 44 ft 128 kts 68°
2026-05-06 19:46 -6.11330 106.65814 55 ft 171 kts 69°
2026-05-06 19:46 -6.10891 106.66939 582 ft 175 kts 70°
2026-05-06 19:46 -6.10452 106.68100 1160 ft 180 kts 68°
2026-05-06 19:47 -6.09741 106.69179 1609 ft 196 kts 50°
2026-05-06 19:47 -6.08730 106.70228 1873 ft 221 kts 46°
2026-05-06 19:47 -6.07559 106.71361 2280 ft 246 kts 46°
2026-05-06 19:47 -6.06297 106.72582 2994 ft 256 kts 46°
2026-05-06 19:48 -6.05014 106.73841 3873 ft 259 kts 46°
2026-05-06 19:48 -6.03745 106.75110 4749 ft 263 kts 46°
2026-05-06 19:48 -6.02451 106.76424 5583 ft 267 kts 47°
2026-05-06 19:48 -6.01142 106.77767 6414 ft 271 kts 47°
2026-05-06 19:49 -5.99821 106.79136 7182 ft 275 kts 47°
2026-05-06 19:49 -5.98708 106.80705 7928 ft 278 kts 66°
2026-05-06 19:49 -5.98194 106.82578 8685 ft 282 kts 85°
2026-05-06 19:49 -5.98367 106.84545 9444 ft 286 kts 105°
2026-05-06 19:50 -5.99011 106.86442 10137 ft 290 kts 109°
2026-05-06 19:50 -5.99705 106.88430 10370 ft 312 kts 108°
2026-05-06 19:50 -6.00444 106.90564 10525 ft 334 kts 108°
2026-05-06 19:50 -6.01213 106.92798 10975 ft 342 kts 108°
2026-05-06 19:51 -6.01994 106.95071 11571 ft 346 kts 108°
2026-05-06 19:51 -6.02779 106.97365 12196 ft 349 kts 108°
2026-05-06 19:51 -6.03568 106.99680 12819 ft 352 kts 108°
2026-05-06 19:51 -6.04362 107.02012 13430 ft 355 kts 109°
2026-05-06 19:52 -6.04893 107.03568 13798 ft 357 kts 109°
2026-05-06 19:52 -6.05980 107.06739 14498 ft 361 kts 109°
2026-05-06 19:52 -6.06801 107.09131 15021 ft 364 kts 109°
2026-05-06 19:52 -6.07617 107.11512 15527 ft 367 kts 109°
2026-05-06 19:53 -6.08453 107.13949 16042 ft 370 kts 109°
2026-05-06 19:53 -6.09296 107.16404 16549 ft 374 kts 109°
2026-05-06 19:53 -6.10168 107.18876 17069 ft 377 kts 110°
2026-05-06 19:53 -6.11152 107.21330 17584 ft 380 kts 112°
2026-05-06 19:54 -6.12220 107.23777 18115 ft 384 kts 114°
2026-05-06 19:54 -6.13332 107.26230 18567 ft 387 kts 114°
2026-05-06 19:54 -6.14458 107.28699 19028 ft 391 kts 114°
2026-05-06 19:54 -6.15584 107.31194 19476 ft 394 kts 114°
2026-05-06 19:55 -6.16710 107.33718 19935 ft 397 kts 114°
2026-05-06 19:55 -6.17453 107.35404 20240 ft 399 kts 114°
2026-05-06 19:55 -6.18953 107.38842 20850 ft 404 kts 113°
2026-05-06 19:55 -6.20079 107.41440 21299 ft 407 kts 113°
2026-05-06 19:56 -6.20832 107.43176 21588 ft 410 kts 113°
2026-05-06 19:56 -6.21975 107.45809 22014 ft 413 kts 113°
2026-05-06 19:56 -6.23130 107.48467 22421 ft 416 kts 113°
2026-05-06 19:56 -6.24671 107.52010 22955 ft 420 kts 113°
2026-05-06 19:57 -6.25463 107.53829 23203 ft 422 kts 113°
2026-05-06 19:57 -6.27031 107.57426 23664 ft 426 kts 113°
2026-05-06 19:57 -6.27835 107.59269 23878 ft 427 kts 113°
2026-05-06 19:57 -6.29030 107.62012 24196 ft 429 kts 113°
2026-05-06 19:58 -6.30229 107.64761 24515 ft 431 kts 113°
2026-05-06 19:58 -6.31420 107.67492 24824 ft 433 kts 113°
2026-05-06 19:58 -6.32646 107.70306 25137 ft 435 kts 113°
2026-05-06 19:58 -6.33860 107.73100 25435 ft 437 kts 113°
2026-05-06 19:59 -6.35080 107.75911 25736 ft 439 kts 113°
2026-05-06 19:59 -6.36305 107.78731 26027 ft 441 kts 114°
2026-05-06 19:59 -6.37537 107.81562 26323 ft 443 kts 114°
2026-05-06 19:59 -6.38777 107.84409 26607 ft 445 kts 114°
2026-05-06 20:00 -6.40005 107.87232 26898 ft 447 kts 114°
2026-05-06 20:00 -6.41249 107.90101 27161 ft 449 kts 114°
2026-05-06 20:00 -6.42498 107.92984 27429 ft 451 kts 114°
2026-05-06 20:00 -6.43756 107.95883 27709 ft 453 kts 114°
2026-05-06 20:01 -6.45019 107.98787 27988 ft 455 kts 114°
2026-05-06 20:01 -6.46290 108.01704 28262 ft 457 kts 114°
2026-05-06 20:01 -6.47568 108.04637 28535 ft 459 kts 114°
2026-05-06 20:01 -6.48849 108.07580 28811 ft 460 kts 114°
2026-05-06 20:02 -6.50134 108.10536 29083 ft 462 kts 114°
2026-05-06 20:02 -6.51426 108.13506 29344 ft 464 kts 114°
2026-05-06 20:02 -6.52718 108.16488 29607 ft 466 kts 114°
2026-05-06 20:02 -6.54010 108.19481 29951 ft 466 kts 114°
2026-05-06 20:03 -6.55300 108.22467 30295 ft 465 kts 114°
2026-05-06 20:03 -6.56584 108.25442 30626 ft 464 kts 114°
2026-05-06 20:03 -6.57873 108.28420 30814 ft 465 kts 114°
2026-05-06 20:03 -6.59158 108.31392 30863 ft 460 kts 114°
2026-05-06 20:04 -6.61698 108.37255 30866 ft 456 kts 114°
2026-05-06 20:04 -6.64236 108.43099 30870 ft 456 kts 114°
2026-05-06 20:05 -6.66748 108.48901 30868 ft 456 kts 114°
2026-05-06 20:05 -6.69232 108.54763 30867 ft 456 kts 110°
2026-05-06 20:06 -6.70578 108.60990 30869 ft 457 kts 99°
2026-05-06 20:06 -6.71544 108.67309 30868 ft 457 kts 99°
2026-05-06 20:07 -6.72510 108.73627 30864 ft 457 kts 99°
2026-05-06 20:07 -6.73480 108.79954 30859 ft 458 kts 99°
2026-05-06 20:08 -6.74457 108.86286 30854 ft 458 kts 99°
2026-05-06 20:08 -6.75429 108.92618 30854 ft 458 kts 99°
2026-05-06 20:09 -6.76397 108.98955 30853 ft 458 kts 99°
2026-05-06 20:09 -6.77366 109.05292 30855 ft 458 kts 99°
2026-05-06 20:10 -6.78331 109.11587 30853 ft 459 kts 99°
2026-05-06 20:10 -6.79304 109.17931 30853 ft 459 kts 99°
2026-05-06 20:11 -6.80269 109.24283 30856 ft 459 kts 99°
2026-05-06 20:11 -6.81231 109.30629 30854 ft 459 kts 99°
2026-05-06 20:12 -6.82199 109.36980 30855 ft 459 kts 99°
2026-05-06 20:12 -6.83168 109.43332 30855 ft 459 kts 99°
2026-05-06 20:13 -6.84136 109.49688 30856 ft 460 kts 99°
2026-05-06 20:13 -6.85105 109.56043 30859 ft 460 kts 99°
2026-05-06 20:14 -6.86069 109.62406 30860 ft 460 kts 99°
2026-05-06 20:14 -6.87008 109.68610 30862 ft 460 kts 99°
2026-05-06 20:15 -6.87947 109.74814 30862 ft 460 kts 99°
2026-05-06 20:15 -6.88876 109.80980 30862 ft 460 kts 99°
2026-05-06 20:16 -6.89841 109.87353 30864 ft 461 kts 99°
2026-05-06 20:16 -6.90620 109.92524 30863 ft 461 kts 99°
2026-05-06 20:17 -6.91583 109.98901 30860 ft 461 kts 99°
2026-05-06 20:17 -6.92546 110.05286 30859 ft 461 kts 99°
2026-05-06 20:18 -6.93513 110.11673 30858 ft 462 kts 99°
2026-05-06 20:18 -6.94481 110.18063 30855 ft 462 kts 99°
2026-05-06 20:19 -6.95442 110.24458 30853 ft 462 kts 99°
2026-05-06 20:19 -6.96406 110.30856 30851 ft 463 kts 99°
2026-05-06 20:20 -6.97353 110.37263 30853 ft 463 kts 97°
2026-05-06 20:20 -6.97578 110.43743 30856 ft 464 kts 91°
2026-05-06 20:21 -6.97687 110.50228 30854 ft 464 kts 92°
2026-05-06 20:21 -6.97805 110.56722 30857 ft 464 kts 92°
2026-05-06 20:22 -6.97922 110.63214 30860 ft 464 kts 92°
2026-05-06 20:22 -6.98041 110.69712 30859 ft 464 kts 92°
2026-05-06 20:23 -6.98159 110.76171 30855 ft 465 kts 92°
2026-05-06 20:23 -6.98271 110.82680 30858 ft 465 kts 92°
2026-05-06 20:24 -6.98382 110.89185 30859 ft 465 kts 92°
2026-05-06 20:24 -6.98495 110.95698 30860 ft 466 kts 92°
2026-05-06 20:25 -6.98609 111.02218 30862 ft 466 kts 92°
2026-05-06 20:25 -6.98720 111.08734 30860 ft 466 kts 92°
2026-05-06 20:26 -6.98829 111.15258 30862 ft 466 kts 92°
2026-05-06 20:26 -6.98934 111.21783 30863 ft 466 kts 92°
2026-05-06 20:27 -6.99038 111.28309 30863 ft 467 kts 92°
2026-05-06 20:27 -6.99147 111.34839 30865 ft 467 kts 92°
2026-05-06 20:28 -6.99378 111.41364 30861 ft 466 kts 98°
2026-05-06 20:28 -7.00912 111.47678 30863 ft 465 kts 107°
2026-05-06 20:29 -7.02688 111.53932 30863 ft 465 kts 107°
2026-05-06 20:29 -7.04461 111.60189 30863 ft 465 kts 107°
2026-05-06 20:30 -7.07101 111.69551 30866 ft 466 kts 107°
2026-05-06 20:31 -7.08878 111.75816 30868 ft 466 kts 107°
2026-05-06 20:31 -7.10661 111.82097 30842 ft 468 kts 107°
2026-05-06 20:32 -7.12446 111.88416 29892 ft 473 kts 107°
2026-05-06 20:32 -7.13359 111.91662 28455 ft 486 kts 107°
2026-05-06 20:32 -7.14276 111.94918 27697 ft 478 kts 107°
2026-05-06 20:32 -7.15365 111.98025 26763 ft 463 kts 116°
2026-05-06 20:33 -7.16902 112.00780 26234 ft 441 kts 125°
2026-05-06 20:33 -7.18777 112.03146 25650 ft 424 kts 134°
2026-05-06 20:33 -7.20778 112.05260 25099 ft 411 kts 134°
2026-05-06 20:33 -7.22731 112.07315 24557 ft 401 kts 134°
2026-05-06 20:34 -7.24636 112.09320 24046 ft 394 kts 134°
2026-05-06 20:34 -7.26526 112.11310 23541 ft 393 kts 134°
2026-05-06 20:34 -7.28424 112.13309 22989 ft 395 kts 134°
2026-05-06 20:34 -7.30318 112.15305 22500 ft 393 kts 134°
2026-05-06 20:35 -7.32201 112.17294 22027 ft 391 kts 134°
2026-05-06 20:35 -7.34077 112.19275 21556 ft 389 kts 134°
2026-05-06 20:35 -7.35939 112.21241 21092 ft 387 kts 134°
2026-05-06 20:35 -7.37793 112.23199 20635 ft 385 kts 134°
2026-05-06 20:36 -7.39625 112.25130 20304 ft 378 kts 134°
2026-05-06 20:36 -7.41452 112.27056 19763 ft 379 kts 134°
2026-05-06 20:36 -7.43252 112.28953 19477 ft 371 kts 134°
2026-05-06 20:36 -7.45019 112.30824 19109 ft 367 kts 132°
2026-05-06 20:37 -7.46545 112.32870 18710 ft 365 kts 121°
2026-05-06 20:37 -7.47648 112.35160 18306 ft 363 kts 110°
2026-05-06 20:37 -7.48302 112.37596 17792 ft 357 kts 101°
2026-05-06 20:37 -7.48776 112.40041 16950 ft 354 kts 101°
2026-05-06 20:38 -7.49247 112.42465 16165 ft 350 kts 102°
2026-05-06 20:38 -7.49715 112.44850 15653 ft 341 kts 102°
2026-05-06 20:38 -7.50167 112.47138 15315 ft 326 kts 102°
2026-05-06 20:38 -7.50605 112.49353 14775 ft 320 kts 102°
2026-05-06 20:39 -7.51035 112.51538 14208 ft 317 kts 102°
2026-05-06 20:39 -7.51464 112.53712 13768 ft 314 kts 102°
2026-05-06 20:39 -7.51888 112.55862 13672 ft 315 kts 102°
2026-05-06 20:39 -7.52310 112.58005 13540 ft 315 kts 102°
2026-05-06 20:40 -7.52733 112.60168 13398 ft 314 kts 102°
2026-05-06 20:40 -7.53151 112.62317 13256 ft 308 kts 101°
2026-05-06 20:40 -7.53548 112.64365 13051 ft 291 kts 101°
2026-05-06 20:40 -7.53933 112.66336 12866 ft 283 kts 101°
2026-05-06 20:41 -7.54318 112.68291 12870 ft 285 kts 101°
2026-05-06 20:41 -7.54701 112.70249 12872 ft 285 kts 101°
2026-05-06 20:41 -7.55082 112.72206 12872 ft 285 kts 101°
2026-05-06 20:41 -7.55462 112.74165 12871 ft 285 kts 101°
2026-05-06 20:42 -7.55843 112.76125 12872 ft 285 kts 101°
2026-05-06 20:42 -7.56225 112.78082 12872 ft 285 kts 101°
2026-05-06 20:42 -7.56608 112.80042 12873 ft 285 kts 101°
2026-05-06 20:42 -7.56989 112.81999 12872 ft 285 kts 101°
2026-05-06 20:43 -7.57373 112.83964 12694 ft 285 kts 101°
2026-05-06 20:43 -7.57758 112.85909 12430 ft 282 kts 101°
2026-05-06 20:43 -7.58139 112.87843 12154 ft 280 kts 101°
2026-05-06 20:43 -7.58516 112.89764 11877 ft 279 kts 101°
2026-05-06 20:44 -7.58892 112.91672 11603 ft 277 kts 101°
2026-05-06 20:44 -7.59266 112.93572 11330 ft 275 kts 101°
2026-05-06 20:44 -7.59635 112.95459 11064 ft 274 kts 101°
2026-05-06 20:44 -7.60002 112.97334 10790 ft 272 kts 101°
2026-05-06 20:45 -7.60367 112.99195 10520 ft 270 kts 101°
2026-05-06 20:45 -7.60727 113.01025 10246 ft 269 kts 100°
2026-05-06 20:45 -7.61087 113.02869 9983 ft 267 kts 100°
2026-05-06 20:45 -7.61438 113.04675 9870 ft 259 kts 100°
2026-05-06 20:46 -7.61779 113.06431 9702 ft 253 kts 100°
2026-05-06 20:46 -7.62113 113.08166 9437 ft 251 kts 100°
2026-05-06 20:46 -7.62446 113.09881 9104 ft 248 kts 100°
2026-05-06 20:46 -7.62776 113.11578 8687 ft 245 kts 100°
2026-05-06 20:47 -7.63104 113.13272 8395 ft 246 kts 99°
2026-05-06 20:47 -7.63138 113.14970 8136 ft 243 kts 76°
2026-05-06 20:47 -7.62394 113.16473 7878 ft 242 kts 49°
2026-05-06 20:47 -7.61024 113.17446 7620 ft 245 kts 21°
2026-05-06 20:48 -7.59362 113.17854 7357 ft 247 kts 14°
2026-05-06 20:48 -7.57687 113.18207 7090 ft 246 kts 14°
2026-05-06 20:48 -7.56015 113.18560 6822 ft 245 kts 14°
2026-05-06 20:48 -7.54349 113.18913 6559 ft 244 kts 14°
2026-05-06 20:49 -7.52716 113.19261 6300 ft 243 kts 14°
2026-05-06 20:49 -7.51067 113.19614 6030 ft 242 kts 14°
2026-05-06 20:49 -7.49421 113.19952 5754 ft 242 kts
2026-05-06 20:49 -7.47761 113.19733 5492 ft 246 kts 337°
2026-05-06 20:50 -7.46484 113.18634 5333 ft 240 kts 303°
2026-05-06 20:50 -7.45948 113.17108 5168 ft 226 kts 282°
2026-05-06 20:50 -7.45623 113.15566 4836 ft 226 kts 283°
2026-05-06 20:50 -7.45293 113.14013 4555 ft 227 kts 283°
2026-05-06 20:51 -7.44963 113.12468 4318 ft 223 kts 283°
2026-05-06 20:51 -7.44639 113.10957 4087 ft 219 kts 282°
2026-05-06 20:51 -7.44321 113.09468 3908 ft 216 kts 282°
2026-05-06 20:51 -7.44006 113.07990 3831 ft 216 kts 282°
2026-05-06 20:52 -7.43691 113.06515 3736 ft 215 kts 282°
2026-05-06 20:52 -7.43376 113.05042 3643 ft 215 kts 282°
2026-05-06 20:52 -7.43166 113.04068 3576 ft 215 kts 282°
2026-05-06 20:52 -7.42646 113.02207 3450 ft 201 kts 290°
2026-05-06 20:53 -7.42178 113.00904 3267 ft 194 kts 290°
2026-05-06 20:53 -7.41733 112.99644 3098 ft 187 kts 289°
2026-05-06 20:53 -7.41305 112.98429 2949 ft 180 kts 289°
2026-05-06 20:53 -7.40986 112.97268 2814 ft 162 kts 277°
2026-05-06 20:54 -7.40872 112.96522 2726 ft 157 kts 278°
2026-05-06 20:54 -7.40702 112.95458 2597 ft 152 kts 278°
2026-05-06 20:54 -7.40532 112.94415 2478 ft 150 kts 278°
2026-05-06 20:54 -7.40365 112.93383 2351 ft 149 kts 278°
2026-05-06 20:55 -7.40202 112.92371 2236 ft 148 kts 278°
2026-05-06 20:55 -7.40037 112.91350 2117 ft 147 kts 278°
2026-05-06 20:55 -7.39871 112.90334 1996 ft 147 kts 278°
2026-05-06 20:55 -7.39706 112.89319 1804 ft 146 kts 278°
2026-05-06 20:56 -7.39544 112.88313 1626 ft 145 kts 278°
2026-05-06 20:56 -7.39382 112.87315 1428 ft 144 kts 278°
2026-05-06 20:56 -7.39220 112.86323 1244 ft 143 kts 278°
2026-05-06 20:56 -7.39060 112.85336 1055 ft 142 kts 278°
2026-05-06 20:57 -7.38902 112.84352 883 ft 142 kts 278°
2026-05-06 20:57 -7.38746 112.83377 705 ft 140 kts 278°
2026-05-06 20:57 -7.38588 112.82417 523 ft 138 kts 279°
2026-05-06 20:57 -7.38434 112.81467 336 ft 137 kts 279°
2026-05-06 20:58 -7.38280 112.80529 156 ft 135 kts 278°
2026-05-06 20:58 -7.38127 112.79593 13 ft 132 kts 279°
2026-05-06 20:58 -7.38014 112.78879 9 ft 63 kts 279°
2026-05-06 20:58 -7.37973 112.78625 9 ft 31 kts 279°
2026-05-06 20:59 -7.37939 112.78418 9 ft 28 kts 279°
2026-05-06 20:59 -7.37912 112.78251 9 ft 20 kts 281°
2026-05-06 20:59 -7.37870 112.78157 8 ft 15 kts 305°
2026-05-06 20:59 -7.37829 112.78106 9 ft 8 kts 309°
2026-05-06 21:00 -7.37789 112.78055 9 ft 10 kts 309°
2026-05-06 21:00 -7.37724 112.78032 10 ft 12 kts 34°
2026-05-06 21:00 -7.37716 112.78119 9 ft 14 kts 97°
2026-05-06 21:00 -7.37733 112.78227 9 ft 17 kts 99°
2026-05-06 21:01 -7.37753 112.78348 9 ft 16 kts 99°
2026-05-06 21:01 -7.37770 112.78451 9 ft 15 kts 99°
2026-05-06 21:01 -7.37787 112.78559 9 ft 17 kts 99°
2026-05-06 21:01 -7.37807 112.78686 9 ft 17 kts 99°
2026-05-06 21:02 -7.37824 112.78791 9 ft 15 kts 99°
2026-05-06 21:02 -7.37841 112.78896 9 ft 16 kts 99°
2026-05-06 21:02 -7.37857 112.78992 9 ft 12 kts 99°
2026-05-06 21:02 -7.37848 112.79055 10 ft 10 kts 52°
2026-05-06 21:03 -7.37771 112.79080 9 ft 13 kts
2026-05-06 21:03 -7.37703 112.79125 9 ft 14 kts 72°
2026-05-06 21:03 -7.37714 112.79225 9 ft 15 kts 99°
2026-05-06 21:03 -7.37731 112.79329 9 ft 13 kts 99°
2026-05-06 21:04 -7.37741 112.79403 9 ft 10 kts 88°
2026-05-06 21:04 -7.37691 112.79452 9 ft 12 kts 14°
2026-05-06 21:04 -7.37638 112.79461 9 ft 6 kts
2026-05-06 21:04 -7.37592 112.79469 9 ft 0 kts
2026-05-06 21:05 -7.37587 112.79469 9 ft 2 kts